Location: Lugrin
(46.4033°N, 6.6674°E)
Time: 11:16:35
(UTC+00:00)

Cosmos 1125 Rocket - Pass Details

Date: 18 September 2020
Orbit: 758 x 780 km, 74.0° (Epoch: 24 October)

Event Time Altitude Azimuth Distance (km) Brightness Sun altitude
Rises 18:56:47 0° 169° (SSE) 3,242 6.5 -14.1°
Reaches altitude 10° 18:59:25 10° 158° (SSE) 2,322 5.6 -14.6°
Maximum altitude 19:03:53 29° 100° (E) 1,409 4.3 -15.3°
Drops below altitude 10° 19:08:24 10° 42° (NE) 2,341 5.8 -16.0°
Sets 19:11:03 0° 31° (NNE) 3,274 6.7 -16.5°
